Location: Palermo
(38.1157°N, 13.3613°E)
Time: 02:21:32
(UTC+01:00)

ISS - Visible Passes

Search period start: 19 December 2018 00:00
Search period end: 29 December 2018 00:00
Orbit: 401 x 408 km, 51.6° (Epoch: 19 December)

Date Brightness Start Highest point End Pass type
(mag) Time Alt. Az. Time Alt. Az. Time Alt. Az.
21 Dec -0.1 06:20:28 10° SE 06:21:27 11° SE 06:22:25 10° ESE visible
23 Dec -1.6 06:10:21 10° SSW 06:13:12 28° SE 06:16:05 10° ENE visible
24 Dec -0.7 05:19:20 10° SSE 05:21:10 14° SE 05:23:01 10° E visible
25 Dec -3.7 06:01:59 11° SW 06:05:05 77° SE 06:08:22 10° NE visible
26 Dec -2.2 05:13:14 35° ESE 05:13:14 35° ESE 05:15:57 10° ENE visible
26 Dec -2.6 06:46:40 10° W 06:49:26 25° NNW 06:52:13 10° NNE visible
27 Dec -3.4 05:56:44 40° NW 05:57:03 41° NW 06:00:12 10° NE visible
28 Dec -1.2 05:07:12 17° NE 05:07:12 17° NE 05:08:01 10° NE visible
28 Dec -1.8 06:39:54 11° NW 06:41:39 15° NNW 06:43:37 10° NNE visible
